Saint Bonnet de Bellac- Haute Vienne - France
Donnes mto: mercredi, 30/11/2011
Date Horaire Temp. E. Hum. E. P.atmo. Pluie Vent Direction Direction Ensoleilleme Solaire P. de rose Temp au vent Rafales
30/11/2011 00:00 9,9 C 93 % 1022,6 hPa 0,0 mm 4,7 km/h (1 Bft) SO 225 0 min 0 W/m 8,8 C 9,7 C 8,3 km/h (2 Bft)
30/11/2011 00:05 10,0 C 94 % 1022,7 hPa 0,0 mm 4,3 km/h (1 Bft) S-SO 202 0 min 0 W/m 9,1 C 10,0 C 6,8 km/h (2 Bft)
30/11/2011 00:10 9,9 C 94 % 1022,8 hPa 0,1 mm 3,6 km/h (1 Bft) S-SO 202 0 min 0 W/m 9,0 C 9,9 C 8,6 km/h (2 Bft)
30/11/2011 00:15 9,9 C 94 % 1022,9 hPa 0,0 mm 5,0 km/h (1 Bft) S-SO 202 0 min 0 W/m 9,0 C 9,6 C 5,0 km/h (1 Bft)
30/11/2011 00:20 10,0 C 94 % 1022,9 hPa 0,0 mm 3,6 km/h (1 Bft) SO 225 0 min 0 W/m 9,1 C 10,0 C 8,6 km/h (2 Bft)
30/11/2011 00:25 10,0 C 94 % 1023,0 hPa 0,0 mm 4,7 km/h (1 Bft) S-SO 202 0 min 0 W/m 9,1 C 9,8 C 9,0 km/h (2 Bft)
30/11/2011 00:30 10,0 C 94 % 1023,0 hPa 0,0 mm 2,2 km/h (1 Bft) SO 225 0 min 0 W/m 9,1 C 10,0 C 6,1 km/h (2 Bft)
30/11/2011 00:35 10,0 C 94 % 1023,0 hPa 0,0 mm 4,0 km/h (1 Bft) SO 225 0 min 0 W/m 9,1 C 10,0 C 6,5 km/h (2 Bft)
30/11/2011 00:40 10,0 C 94 % 1023,1 hPa 0,0 mm 5,0 km/h (1 Bft) SO 225 0 min 0 W/m 9,1 C 9,8 C 10,4 km/h (2 Bft)
30/11/2011 00:45 10,0 C 94 % 1023,2 hPa 0,0 mm 3,6 km/h (1 Bft) SO 225 0 min 0 W/m 9,1 C 10,0 C 6,8 km/h (2 Bft)
30/11/2011 00:50 10,0 C 94 % 1023,2 hPa 0,0 mm 3,2 km/h (1 Bft) SO 225 0 min 0 W/m 9,1 C 10,0 C 3,2 km/h (1 Bft)
30/11/2011 00:55 10,0 C 94 % 1023,1 hPa 0,0 mm 3,2 km/h (1 Bft) S-SO 202 0 min 0 W/m 9,1 C 10,0 C 4,3 km/h (1 Bft)
30/11/2011 01:00 10,0 C 94 % 1023,1 hPa 0,0 mm 5,0 km/h (1 Bft) SO 225 0 min 0 W/m 9,1 C 9,8 C 7,2 km/h (2 Bft)
30/11/2011 01:05 10,1 C 94 % 1023,1 hPa 0,0 mm 4,7 km/h (1 Bft) SO 225 0 min 0 W/m 9,2 C 10,1 C 7,6 km/h (2 Bft)
30/11/2011 01:10 10,1 C 94 % 1023,1 hPa 0,0 mm 2,5 km/h (1 Bft) SO 225 0 min 0 W/m 9,2 C 10,1 C 2,9 km/h (1 Bft)
30/11/2011 01:15 10,0 C 94 % 1023,2 hPa 0,0 mm 2,9 km/h (1 Bft) O-SO 247 0 min 0 W/m 9,1 C 10,0 C 6,8 km/h (2 Bft)
30/11/2011 01:20 10,0 C 94 % 1023,2 hPa 0,0 mm 3,6 km/h (1 Bft) SO 225 0 min 0 W/m 9,1 C 10,0 C 6,8 km/h (2 Bft)
30/11/2011 01:25 10,0 C 94 % 1023,2 hPa 0,0 mm 4,3 km/h (1 Bft) SO 225 0 min 0 W/m 9,1 C 10,0 C 7,9 km/h (2 Bft)
30/11/2011 01:30 10,0 C 94 % 1023,3 hPa 0,0 mm 2,9 km/h (1 Bft) S-SO 202 0 min 0 W/m 9,1 C 10,0 C 6,1 km/h (2 Bft)
30/11/2011 01:35 10,0 C 94 % 1023,2 hPa 0,0 mm 1,8 km/h (1 Bft) SO 225 0 min 0 W/m 9,1 C 10,0 C 4,3 km/h (1 Bft)
30/11/2011 01:40 9,9 C 94 % 1023,3 hPa 0,0 mm 1,8 km/h (1 Bft) SO 225 0 min 0 W/m 9,0 C 9,9 C 3,2 km/h (1 Bft)
30/11/2011 01:45 10,0 C 94 % 1023,3 hPa 0,0 mm 1,4 km/h (1 Bft) SO 225 0 min 0 W/m 9,1 C 10,0 C 4,3 km/h (1 Bft)
30/11/2011 01:50 9,9 C 94 % 1023,4 hPa 0,0 mm 1,4 km/h (1 Bft) O-SO 247 0 min 0 W/m 9,0 C 9,9 C 1,4 km/h (1 Bft)
30/11/2011 01:55 10,0 C 94 % 1023,5 hPa 0,0 mm 0,7 km/h (0 Bft) SO 225 0 min 0 W/m 9,1 C 10,0 C 3,6 km/h (1 Bft)
30/11/2011 02:02 10,0 C 94 % 1023,5 hPa 0,0 mm 1,8 km/h (1 Bft) SO 225 0 min 0 W/m 9,1 C 10,0 C 3,6 km/h (1 Bft)
30/11/2011 02:05 9,9 C 94 % 1023,7 hPa 0,0 mm 1,1 km/h (1 Bft) SO 225 0 min 0 W/m 9,0 C 9,9 C 4,0 km/h (1 Bft)
30/11/2011 02:10 9,9 C 94 % 1023,7 hPa 0,0 mm 0,4 km/h (0 Bft) O-SO 247 0 min 0 W/m 9,0 C 9,9 C 3,6 km/h (1 Bft)
30/11/2011 02:15 9,9 C 94 % 1023,7 hPa 0,0 mm 1,1 km/h (1 Bft) O-SO 247 0 min 0 W/m 9,0 C 9,9 C 3,2 km/h (1 Bft)
30/11/2011 02:20 10,0 C 94 % 1023,7 hPa 0,0 mm 0,0 km/h (0 Bft) O-SO 247 0 min 0 W/m 9,1 C 10,0 C 0,0 km/h (0 Bft)
30/11/2011 02:25 10,0 C 94 % 1023,8 hPa 0,0 mm 0,0 km/h (0 Bft) SO 225 0 min 0 W/m 9,1 C 10,0 C 0,0 km/h (0 Bft)
30/11/2011 02:30 10,0 C 94 % 1023,8 hPa 0,0 mm 1,4 km/h (1 Bft) S-SO 202 0 min 0 W/m 9,1 C 10,0 C 3,2 km/h (1 Bft)
30/11/2011 02:35 9,9 C 94 % 1024,0 hPa 0,0 mm 1,1 km/h (1 Bft) SO 225 0 min 0 W/m 9,0 C 9,9 C 1,1 km/h (1 Bft)
30/11/2011 02:40 9,9 C 94 % 1024,0 hPa 0,0 mm 0,0 km/h (0 Bft) SO 225 0 min 0 W/m 9,0 C 9,9 C 1,4 km/h (1 Bft)
30/11/2011 02:45 9,9 C 94 % 1024,1 hPa 0,0 mm 0,0 km/h (0 Bft) O-SO 247 0 min 0 W/m 9,0 C 9,9 C 0,0 km/h (0 Bft)
30/11/2011 02:50 9,9 C 94 % 1024,2 hPa 0,0 mm 0,0 km/h (0 Bft) SO 225 0 min 0 W/m 9,0 C 9,9 C 0,0 km/h (0 Bft)
30/11/2011 02:55 9,9 C 94 % 1024,1 hPa 0,0 mm 0,7 km/h (0 Bft) SO 225 0 min 0 W/m 9,0 C 9,9 C 4,0 km/h (1 Bft)
30/11/2011 03:00 9,9 C 94 % 1024,2 hPa 0,0 mm 0,0 km/h (0 Bft) O-SO 247 0 min 0 W/m 9,0 C 9,9 C 0,0 km/h (0 Bft)
30/11/2011 03:05 9,9 C 94 % 1024,2 hPa 0,0 mm 0,0 km/h (0 Bft) SO 225 0 min 0 W/m 9,0 C 9,9 C 0,0 km/h (0 Bft)
30/11/2011 03:10 9,9 C 94 % 1024,2 hPa 0,0 mm 0,4 km/h (0 Bft) SO 225 0 min 0 W/m 9,0 C 9,9 C 4,0 km/h (1 Bft)
30/11/2011 03:15 9,9 C 94 % 1024,2 hPa 0,0 mm 0,0 km/h (0 Bft) SO 225 0 min 0 W/m 9,0 C 9,9 C 0,0 km/h (0 Bft)
30/11/2011 03:20 9,8 C 94 % 1024,3 hPa 0,0 mm 1,1 km/h (1 Bft) SO 225 0 min 0 W/m 8,9 C 9,8 C 2,9 km/h (1 Bft)
30/11/2011 03:25 9,8 C 94 % 1024,3 hPa 0,0 mm 0,4 km/h (0 Bft) S-SO 202 0 min 0 W/m 8,9 C 9,8 C 4,0 km/h (1 Bft)
30/11/2011 03:30 9,8 C 94 % 1024,4 hPa 0,0 mm 3,2 km/h (1 Bft) SO 225 0 min 0 W/m 8,9 C 9,8 C 4,3 km/h (1 Bft)
30/11/2011 03:35 9,9 C 94 % 1024,4 hPa 0,0 mm 0,7 km/h (0 Bft) SO 225 0 min 0 W/m 9,0 C 9,9 C 0,7 km/h (0 Bft)
30/11/2011 03:40 9,9 C 94 % 1024,4 hPa 0,0 mm 0,7 km/h (0 Bft) SO 225 0 min 0 W/m 9,0 C 9,9 C 3,6 km/h (1 Bft)
30/11/2011 03:45 9,9 C 95 % 1024,4 hPa 0,0 mm 3,2 km/h (1 Bft) SO 225 0 min 0 W/m 9,1 C 9,9 C 6,1 km/h (2 Bft)
30/11/2011 03:50 9,9 C 95 % 1024,6 hPa 0,0 mm 0,7 km/h (0 Bft) S 180 0 min 0 W/m 9,1 C 9,9 C 3,2 km/h (1 Bft)
30/11/2011 03:55 9,9 C 95 % 1024,6 hPa 0,0 mm 1,8 km/h (1 Bft) O-SO 247 0 min 0 W/m 9,1 C 9,9 C 1,8 km/h (1 Bft)
30/11/2011 04:00 9,9 C 95 % 1024,6 hPa 0,0 mm 0,0 km/h (0 Bft) O-SO 247 0 min 0 W/m 9,1 C 9,9 C 0,0 km/h (0 Bft)
30/11/2011 04:05 10,0 C 95 % 1024,5 hPa 0,0 mm 0,0 km/h (0 Bft) O-SO 247 0 min 0 W/m 9,2 C 10,0 C 0,0 km/h (0 Bft)
30/11/2011 04:10 10,0 C 95 % 1024,6 hPa 0,0 mm 0,0 km/h (0 Bft) SO 225 0 min 0 W/m 9,2 C 10,0 C 0,0 km/h (0 Bft)
30/11/2011 04:15 10,0 C 95 % 1024,5 hPa 0,0 mm 0,0 km/h (0 Bft) SO 225 0 min 0 W/m 9,2 C 10,0 C 0,0 km/h (0 Bft)
30/11/2011 04:20 9,9 C 95 % 1024,6 hPa 0,0 mm 0,0 km/h (0 Bft) SO 225 0 min 0 W/m 9,1 C 9,9 C 0,0 km/h (0 Bft)
30/11/2011 04:25 10,0 C 94 % 1024,6 hPa 0,0 mm 0,0 km/h (0 Bft) SO 225 0 min 0 W/m 9,1 C 10,0 C 0,0 km/h (0 Bft)
30/11/2011 04:30 9,9 C 95 % 1024,6 hPa 0,0 mm 0,0 km/h (0 Bft) SO 225 0 min 0 W/m 9,1 C 9,9 C 0,0 km/h (0 Bft)
30/11/2011 04:35 9,9 C 95 % 1024,7 hPa 0,0 mm 0,0 km/h (0 Bft) SO 225 0 min 0 W/m 9,1 C 9,9 C 0,0 km/h (0 Bft)
30/11/2011 04:40 9,8 C 95 % 1024,8 hPa 0,0 mm 0,0 km/h (0 Bft) SO 225 0 min 0 W/m 9,0 C 9,8 C 0,0 km/h (0 Bft)
30/11/2011 04:45 9,8 C 94 % 1024,7 hPa 0,0 mm 0,0 km/h (0 Bft) SO 225 0 min 0 W/m 8,9 C 9,8 C 0,0 km/h (0 Bft)
30/11/2011 04:50 9,8 C 94 % 1024,8 hPa 0,0 mm 0,0 km/h (0 Bft) SO 225 0 min 0 W/m 8,9 C 9,8 C 0,0 km/h (0 Bft)
30/11/2011 04:55 9,7 C 95 % 1024,9 hPa 0,0 mm 0,0 km/h (0 Bft) SO 225 0 min 0 W/m 8,9 C 9,7 C 0,0 km/h (0 Bft)
30/11/2011 05:00 9,6 C 94 % 1025,0 hPa 0,0 mm 0,0 km/h (0 Bft) SO 225 0 min 0 W/m 8,7 C 9,6 C 0,0 km/h (0 Bft)
30/11/2011 05:05 9,5 C 94 % 1024,8 hPa 0,0 mm 0,0 km/h (0 Bft) SO 225 0 min 0 W/m 8,6 C 9,5 C 0,0 km/h (0 Bft)
30/11/2011 05:10 9,5 C 94 % 1024,9 hPa 0,0 mm 0,0 km/h (0 Bft) SO 225 0 min 0 W/m 8,6 C 9,5 C 0,0 km/h (0 Bft)
30/11/2011 05:15 9,4 C 94 % 1024,8 hPa 0,0 mm 0,0 km/h (0 Bft) SO 225 0 min 0 W/m 8,5 C 9,4 C 0,0 km/h (0 Bft)
30/11/2011 05:20 9,3 C 94 % 1024,9 hPa 0,0 mm 0,0 km/h (0 Bft) SO 225 0 min 0 W/m 8,4 C 9,3 C 0,0 km/h (0 Bft)
30/11/2011 05:25 9,2 C 94 % 1025,0 hPa 0,0 mm 0,0 km/h (0 Bft) SO 225 0 min 0 W/m 8,3 C 9,2 C 0,0 km/h (0 Bft)
30/11/2011 05:30 9,1 C 94 % 1025,0 hPa 0,0 mm 0,0 km/h (0 Bft) SO 225 0 min 0 W/m 8,2 C 9,1 C 0,0 km/h (0 Bft)
30/11/2011 05:35 8,9 C 95 % 1025,0 hPa 0,0 mm 0,0 km/h (0 Bft) SO 225 0 min 0 W/m 8,1 C 8,9 C 0,0 km/h (0 Bft)
30/11/2011 05:40 8,9 C 95 % 1025,0 hPa 0,0 mm 0,0 km/h (0 Bft) SO 225 0 min 0 W/m 8,1 C 8,9 C 0,0 km/h (0 Bft)
30/11/2011 05:45 8,9 C 95 % 1025,0 hPa 0,0 mm 0,0 km/h (0 Bft) SO 225 0 min 0 W/m 8,1 C 8,9 C 0,0 km/h (0 Bft)
30/11/2011 05:50 8,9 C 95 % 1025,0 hPa 0,0 mm 0,0 km/h (0 Bft) SO 225 0 min 0 W/m 8,1 C 8,9 C 0,0 km/h (0 Bft)
30/11/2011 05:55 9,1 C 95 % 1025,2 hPa 0,0 mm 0,0 km/h (0 Bft) SO 225 0 min 0 W/m 8,3 C 9,1 C 0,0 km/h (0 Bft)
30/11/2011 06:00 9,1 C 95 % 1025,3 hPa 0,0 mm 0,0 km/h (0 Bft) O-SO 247 0 min 0 W/m 8,3 C 9,1 C 0,0 km/h (0 Bft)
30/11/2011 06:05 9,1 C 95 % 1025,2 hPa 0,0 mm 0,0 km/h (0 Bft) O-SO 247 0 min 0 W/m 8,3 C 9,1 C 0,0 km/h (0 Bft)
30/11/2011 06:10 9,2 C 95 % 1025,3 hPa 0,0 mm 0,0 km/h (0 Bft) O-SO 247 0 min 0 W/m 8,4 C 9,2 C 0,0 km/h (0 Bft)
30/11/2011 06:15 9,2 C 95 % 1025,3 hPa 0,0 mm 0,0 km/h (0 Bft) N 360 0 min 0 W/m 8,4 C 9,2 C 0,0 km/h (0 Bft)
30/11/2011 06:20 9,2 C 95 % 1025,3 hPa 0,0 mm 0,0 km/h (0 Bft) N 360 0 min 0 W/m 8,4 C 9,2 C 0,0 km/h (0 Bft)
30/11/2011 06:25 9,2 C 95 % 1025,3 hPa 0,0 mm 0,0 km/h (0 Bft) N 360 0 min 0 W/m 8,4 C 9,2 C 0,0 km/h (0 Bft)
30/11/2011 06:30 9,2 C 95 % 1025,3 hPa 0,0 mm 0,0 km/h (0 Bft) N 360 0 min 0 W/m 8,4 C 9,2 C 0,0 km/h (0 Bft)
30/11/2011 06:35 9,2 C 95 % 1025,2 hPa 0,0 mm 0,0 km/h (0 Bft) N 360 0 min 0 W/m 8,4 C 9,2 C 0,0 km/h (0 Bft)
30/11/2011 06:40 9,1 C 94 % 1025,1 hPa 0,0 mm 0,7 km/h (0 Bft) NE 45 0 min 0 W/m 8,2 C 9,1 C 3,6 km/h (1 Bft)
30/11/2011 06:45 9,0 C 94 % 1025,0 hPa 0,0 mm 0,0 km/h (0 Bft) NE 45 0 min 0 W/m 8,1 C 9,0 C 0,0 km/h (0 Bft)
30/11/2011 06:50 8,9 C 94 % 1025,1 hPa 0,0 mm 0,0 km/h (0 Bft) NE 45 0 min 0 W/m 8,0 C 8,9 C 0,0 km/h (0 Bft)
30/11/2011 06:55 8,8 C 95 % 1025,2 hPa 0,0 mm 0,0 km/h (0 Bft) NE 45 0 min 0 W/m 8,0 C 8,8 C 0,0 km/h (0 Bft)
30/11/2011 07:00 8,7 C 94 % 1025,4 hPa 0,0 mm 0,4 km/h (0 Bft) N 360 0 min 0 W/m 7,8 C 8,7 C 4,3 km/h (1 Bft)
30/11/2011 07:05 8,6 C 95 % 1025,5 hPa 0,0 mm 0,0 km/h (0 Bft) N-NO 337 0 min 0 W/m 7,8 C 8,6 C 0,0 km/h (0 Bft)
30/11/2011 07:10 8,5 C 94 % 1025,4 hPa 0,0 mm 1,1 km/h (1 Bft) N-NE 22 0 min 0 W/m 7,6 C 8,5 C 4,0 km/h (1 Bft)
30/11/2011 07:15 8,5 C 95 % 1025,5 hPa 0,0 mm 1,1 km/h (1 Bft) N-NE 22 0 min 0 W/m 7,7 C 8,5 C 4,0 km/h (1 Bft)
30/11/2011 07:20 8,5 C 95 % 1025,4 hPa 0,0 mm 0,4 km/h (0 Bft) N-NE 22 0 min 0 W/m 7,7 C 8,5 C 3,2 km/h (1 Bft)
30/11/2011 07:25 8,5 C 95 % 1025,5 hPa 0,0 mm 4,0 km/h (1 Bft) N-NE 22 0 min 0 W/m 7,7 C 8,5 C 4,0 km/h (1 Bft)
30/11/2011 07:30 8,5 C 95 % 1025,5 hPa 0,0 mm 2,5 km/h (1 Bft) N-NE 22 0 min 0 W/m 7,7 C 8,5 C 4,0 km/h (1 Bft)
30/11/2011 07:35 8,5 C 95 % 1025,5 hPa 0,0 mm 0,0 km/h (0 Bft) N-NE 22 0 min 0 W/m 7,7 C 8,5 C 0,0 km/h (0 Bft)
30/11/2011 07:40 8,4 C 95 % 1025,4 hPa 0,0 mm 0,0 km/h (0 Bft) N-NE 22 0 min 0 W/m 7,6 C 8,4 C 0,0 km/h (0 Bft)
30/11/2011 07:45 8,4 C 95 % 1025,5 hPa 0,0 mm 0,0 km/h (0 Bft) N-NE 22 0 min 0 W/m 7,6 C 8,4 C 0,0 km/h (0 Bft)
30/11/2011 07:50 8,4 C 95 % 1025,6 hPa 0,0 mm 0,0 km/h (0 Bft) N-NE 22 0 min 0 W/m 7,6 C 8,4 C 0,0 km/h (0 Bft)
30/11/2011 07:55 8,4 C 95 % 1025,6 hPa 0,0 mm 0,0 km/h (0 Bft) N-NE 22 0 min 0 W/m 7,6 C 8,4 C 0,0 km/h (0 Bft)
30/11/2011 08:00 8,4 C 95 % 1025,7 hPa 0,0 mm 0,0 km/h (0 Bft) N-NE 22 0 min 0 W/m 7,6 C 8,4 C 0,0 km/h (0 Bft)
30/11/2011 08:05 8,4 C 95 % 1025,6 hPa 0,0 mm 0,0 km/h (0 Bft) N-NE 22 0 min 0 W/m 7,6 C 8,4 C 0,0 km/h (0 Bft)
30/11/2011 08:10 8,4 C 95 % 1025,7 hPa 0,0 mm 0,0 km/h (0 Bft) N-NE 22 0 min 0 W/m 7,6 C 8,4 C 0,0 km/h (0 Bft)
30/11/2011 08:15 8,4 C 95 % 1025,7 hPa 0,0 mm 0,0 km/h (0 Bft) N-NE 22 0 min 0 W/m 7,6 C 8,4 C 0,0 km/h (0 Bft)
30/11/2011 08:20 8,4 C 95 % 1025,7 hPa 0,0 mm 0,0 km/h (0 Bft) N-NE 22 0 min 0 W/m 7,6 C 8,4 C 0,0 km/h (0 Bft)
30/11/2011 08:25 8,4 C 95 % 1025,7 hPa 0,0 mm 0,0 km/h (0 Bft) N-NE 22 0 min 0 W/m 7,6 C 8,4 C 0,0 km/h (0 Bft)
30/11/2011 08:30 8,4 C 95 % 1025,8 hPa 0,0 mm 0,0 km/h (0 Bft) N-NE 22 0 min 0 W/m 7,6 C 8,4 C 0,0 km/h (0 Bft)
30/11/2011 08:35 8,4 C 95 % 1025,8 hPa 0,0 mm 0,0 km/h (0 Bft) N-NE 22 0 min 0 W/m 7,6 C 8,4 C 0,0 km/h (0 Bft)
30/11/2011 08:40 8,4 C 95 % 1025,8 hPa 0,0 mm 0,0 km/h (0 Bft) N-NE 22 0 min 0 W/m 7,6 C 8,4 C 0,0 km/h (0 Bft)
30/11/2011 08:45 8,4 C 95 % 1025,8 hPa 0,0 mm 0,0 km/h (0 Bft) N-NE 22 0 min 0 W/m 7,6 C 8,4 C 0,0 km/h (0 Bft)
30/11/2011 08:50 8,4 C 95 % 1025,8 hPa 0,0 mm 0,0 km/h (0 Bft) N-NE 22 0 min 0 W/m 7,6 C 8,4 C 0,0 km/h (0 Bft)
30/11/2011 08:55 8,5 C 95 % 1025,9 hPa 0,0 mm 0,0 km/h (0 Bft) N-NE 22 0 min 0 W/m 7,7 C 8,5 C 0,0 km/h (0 Bft)
30/11/2011 09:00 8,5 C 95 % 1025,9 hPa 0,0 mm 0,0 km/h (0 Bft) N-NE 22 0 min 0 W/m 7,7 C 8,5 C 0,0 km/h (0 Bft)
30/11/2011 09:05 8,6 C 95 % 1025,8 hPa 0,0 mm 0,0 km/h (0 Bft) N-NE 22 0 min 0 W/m 7,8 C 8,6 C 0,0 km/h (0 Bft)
30/11/2011 09:10 8,6 C 95 % 1025,9 hPa 0,0 mm 0,0 km/h (0 Bft) N-NE 22 0 min 0 W/m 7,8 C 8,6 C 0,0 km/h (0 Bft)
30/11/2011 09:15 8,6 C 95 % 1025,9 hPa 0,0 mm 0,0 km/h (0 Bft) N-NE 22 0 min 0 W/m 7,8 C 8,6 C 0,0 km/h (0 Bft)
30/11/2011 09:20 8,6 C 95 % 1025,9 hPa 0,0 mm 0,0 km/h (0 Bft) N-NE 22 0 min 0 W/m 7,8 C 8,6 C 0,0 km/h (0 Bft)
30/11/2011 09:25 8,8 C 95 % 1025,9 hPa 0,0 mm 0,0 km/h (0 Bft) N-NE 22 0 min 0 W/m 8,0 C 8,8 C 0,0 km/h (0 Bft)
30/11/2011 09:30 8,8 C 95 % 1025,9 hPa 0,0 mm 0,0 km/h (0 Bft) N-NE 22 0 min 0 W/m 8,0 C 8,8 C 0,0 km/h (0 Bft)
30/11/2011 09:35 8,8 C 95 % 1026,0 hPa 0,0 mm 1,4 km/h (1 Bft) N-NE 22 0 min 0 W/m 8,0 C 8,8 C 3,6 km/h (1 Bft)
30/11/2011 09:40 8,8 C 95 % 1025,9 hPa 0,0 mm 1,1 km/h (1 Bft) E 90 0 min 0 W/m 8,0 C 8,8 C 1,1 km/h (1 Bft)
30/11/2011 09:45 8,8 C 95 % 1026,0 hPa 0,0 mm 0,7 km/h (0 Bft) E 90 0 min 0 W/m 8,0 C 8,8 C 3,2 km/h (1 Bft)
30/11/2011 09:50 8,9 C 95 % 1026,0 hPa 0,0 mm 1,8 km/h (1 Bft) E 90 0 min 0 W/m 8,1 C 8,9 C 2,9 km/h (1 Bft)
30/11/2011 09:55 8,9 C 95 % 1026,1 hPa 0,0 mm 0,0 km/h (0 Bft) E 90 0 min 0 W/m 8,1 C 8,9 C 0,0 km/h (0 Bft)
30/11/2011 10:00 9,0 C 95 % 1026,1 hPa 0,0 mm 0,0 km/h (0 Bft) E-SE 112 0 min 0 W/m 8,2 C 9,0 C 0,0 km/h (0 Bft)
30/11/2011 10:05 9,1 C 95 % 1026,2 hPa 0,0 mm 0,0 km/h (0 Bft) E-SE 112 0 min 0 W/m 8,3 C 9,1 C 0,0 km/h (0 Bft)
30/11/2011 10:10 9,1 C 95 % 1026,2 hPa 0,0 mm 1,4 km/h (1 Bft) E-SE 112 0 min 0 W/m 8,3 C 9,1 C 2,9 km/h (1 Bft)
30/11/2011 10:15 9,1 C 95 % 1026,4 hPa 0,0 mm 0,0 km/h (0 Bft) E-SE 112 0 min 0 W/m 8,3 C 9,1 C 0,0 km/h (0 Bft)
30/11/2011 10:20 9,2 C 95 % 1026,2 hPa 0,0 mm 0,0 km/h (0 Bft) E-SE 112 0 min 0 W/m 8,4 C 9,2 C 0,0 km/h (0 Bft)
30/11/2011 10:25 9,2 C 95 % 1026,4 hPa 0,0 mm 0,0 km/h (0 Bft) E-SE 112 0 min 0 W/m 8,4 C 9,2 C 0,0 km/h (0 Bft)
30/11/2011 10:30 9,3 C 95 % 1026,4 hPa 0,0 mm 0,0 km/h (0 Bft) E-SE 112 0 min 0 W/m 8,5 C 9,3 C 0,0 km/h (0 Bft)
30/11/2011 10:35 9,4 C 95 % 1026,4 hPa 0,0 mm 0,0 km/h (0 Bft) E-SE 112 0 min 0 W/m 8,6 C 9,4 C 0,0 km/h (0 Bft)
30/11/2011 10:40 9,4 C 95 % 1026,4 hPa 0,0 mm 0,0 km/h (0 Bft) E-SE 112 0 min 0 W/m 8,6 C 9,4 C 0,0 km/h (0 Bft)
30/11/2011 10:45 9,4 C 95 % 1026,4 hPa 0,0 mm 0,0 km/h (0 Bft) E-SE 112 0 min 0 W/m 8,6 C 9,4 C 0,0 km/h (0 Bft)
30/11/2011 10:50 9,5 C 95 % 1026,3 hPa 0,0 mm 0,0 km/h (0 Bft) E-SE 112 0 min 0 W/m 8,7 C 9,5 C 0,0 km/h (0 Bft)
30/11/2011 10:55 9,6 C 95 % 1026,3 hPa 0,0 mm 0,4 km/h (0 Bft) E-SE 112 0 min 0 W/m 8,8 C 9,6 C 3,2 km/h (1 Bft)
30/11/2011 11:00 9,6 C 95 % 1026,3 hPa 0,0 mm 0,0 km/h (0 Bft) E-SE 112 0 min 0 W/m 8,8 C 9,6 C 0,0 km/h (0 Bft)
30/11/2011 11:05 9,7 C 95 % 1026,3 hPa 0,0 mm 0,0 km/h (0 Bft) E-SE 112 0 min 0 W/m 8,9 C 9,7 C 0,0 km/h (0 Bft)
30/11/2011 11:10 9,8 C 95 % 1026,3 hPa 0,0 mm 0,0 km/h (0 Bft) SE 135 0 min 0 W/m 9,0 C 9,8 C 0,0 km/h (0 Bft)
30/11/2011 11:15 9,9 C 95 % 1026,4 hPa 0,0 mm 0,0 km/h (0 Bft) SE 135 0 min 0 W/m 9,1 C 9,9 C 0,0 km/h (0 Bft)
30/11/2011 11:20 10,0 C 95 % 1026,4 hPa 0,0 mm 0,0 km/h (0 Bft) SE 135 0 min 0 W/m 9,2 C 10,0 C 0,0 km/h (0 Bft)
30/11/2011 11:25 10,1 C 95 % 1026,2 hPa 0,0 mm 0,0 km/h (0 Bft) S-SE 157 0 min 0 W/m 9,3 C 10,1 C 1,4 km/h (1 Bft)
30/11/2011 11:30 10,2 C 95 % 1026,3 hPa 0,0 mm 0,0 km/h (0 Bft) S-SO 202 0 min 0 W/m 9,4 C 10,2 C 0,0 km/h (0 Bft)
30/11/2011 11:35 10,3 C 95 % 1026,3 hPa 0,0 mm 0,4 km/h (0 Bft) S-SE 157 0 min 0 W/m 9,5 C 10,3 C 0,4 km/h (0 Bft)
30/11/2011 11:40 10,5 C 96 % 1026,2 hPa 0,0 mm 0,4 km/h (0 Bft) E-SE 112 0 min 0 W/m 9,9 C 10,5 C 3,2 km/h (1 Bft)
30/11/2011 11:45 10,6 C 95 % 1026,2 hPa 0,0 mm 0,0 km/h (0 Bft) S-SE 157 0 min 0 W/m 9,8 C 10,6 C 0,0 km/h (0 Bft)
30/11/2011 11:50 10,8 C 95 % 1026,2 hPa 0,0 mm 0,4 km/h (0 Bft) SO 225 0 min 0 W/m 10,0 C 10,8 C 3,6 km/h (1 Bft)
30/11/2011 11:55 10,8 C 94 % 1026,2 hPa 0,0 mm 2,2 km/h (1 Bft) S-SE 157 0 min 0 W/m 9,9 C 10,8 C 2,9 km/h (1 Bft)
30/11/2011 12:00 10,9 C 93 % 1026,3 hPa 0,0 mm 0,0 km/h (0 Bft) S-SO 202 0 min 0 W/m 9,8 C 10,9 C 3,2 km/h (1 Bft)
30/11/2011 12:05 10,9 C 93 % 1026,2 hPa 0,0 mm 0,0 km/h (0 Bft) S-SE 157 0 min 0 W/m 9,8 C 10,9 C 0,0 km/h (0 Bft)
30/11/2011 12:10 11,1 C 93 % 1026,2 hPa 0,0 mm 0,4 km/h (0 Bft) SE 135 0 min 0 W/m 10,0 C 11,1 C 3,6 km/h (1 Bft)
30/11/2011 12:15 11,1 C 93 % 1026,1 hPa 0,0 mm 0,0 km/h (0 Bft) SE 135 0 min 0 W/m 10,0 C 11,1 C 0,0 km/h (0 Bft)
30/11/2011 12:20 11,2 C 93 % 1026,1 hPa 0,0 mm 2,5 km/h (1 Bft) S-SE 157 0 min 0 W/m 10,1 C 11,2 C 4,3 km/h (1 Bft)
30/11/2011 12:25 11,2 C 92 % 1026,0 hPa 0,0 mm 1,8 km/h (1 Bft) S-SE 157 0 min 0 W/m 9,9 C 11,2 C 1,8 km/h (1 Bft)
30/11/2011 12:30 11,3 C 92 % 1025,9 hPa 0,0 mm 0,0 km/h (0 Bft) S-SE 157 0 min 0 W/m 10,0 C 11,3 C 0,0 km/h (0 Bft)
30/11/2011 12:35 11,3 C 91 % 1025,8 hPa 0,0 mm 0,7 km/h (0 Bft) S-SO 202 0 min 0 W/m 9,9 C 11,3 C 3,6 km/h (1 Bft)
30/11/2011 12:40 11,3 C 91 % 1025,8 hPa 0,0 mm 1,1 km/h (1 Bft) S 180 0 min 0 W/m 9,9 C 11,3 C 1,1 km/h (1 Bft)
30/11/2011 12:45 11,4 C 90 % 1025,7 hPa 0,0 mm 2,2 km/h (1 Bft) S 180 0 min 0 W/m 9,8 C 11,4 C 4,0 km/h (1 Bft)
30/11/2011 12:50 11,4 C 91 % 1025,6 hPa 0,0 mm 0,0 km/h (0 Bft) S 180 0 min 0 W/m 10,0 C 11,4 C 3,2 km/h (1 Bft)
30/11/2011 12:55 11,6 C 91 % 1025,5 hPa 0,0 mm 0,0 km/h (0 Bft) S 180 0 min 0 W/m 10,2 C 11,6 C 0,0 km/h (0 Bft)
30/11/2011 13:00 11,6 C 90 % 1025,5 hPa 0,0 mm 2,2 km/h (1 Bft) S-SE 157 0 min 0 W/m 10,0 C 11,6 C 4,3 km/h (1 Bft)
30/11/2011 13:05 11,7 C 90 % 1025,6 hPa 0,0 mm 0,0 km/h (0 Bft) S-SE 157 0 min 0 W/m 10,1 C 11,7 C 0,0 km/h (0 Bft)
30/11/2011 13:10 11,8 C 90 % 1025,6 hPa 0,0 mm 1,4 km/h (1 Bft) S-SE 157 0 min 0 W/m 10,2 C 11,8 C 4,0 km/h (1 Bft)
30/11/2011 13:15 11,8 C 89 % 1025,4 hPa 0,0 mm 0,7 km/h (0 Bft) S-SE 157 0 min 0 W/m 10,0 C 11,8 C 0,7 km/h (0 Bft)
30/11/2011 13:20 11,8 C 89 % 1025,4 hPa 0,0 mm 2,5 km/h (1 Bft) S-SE 157 0 min 0 W/m 10,0 C 11,8 C 4,0 km/h (1 Bft)
30/11/2011 13:25 11,8 C 88 % 1025,3 hPa 0,0 mm 0,0 km/h (0 Bft) S-SE 157 0 min 0 W/m 9,9 C 11,8 C 3,2 km/h (1 Bft)
30/11/2011 13:30 11,9 C 88 % 1025,2 hPa 0,0 mm 0,0 km/h (0 Bft) S-SE 157 0 min 0 W/m 10,0 C 11,9 C 1,4 km/h (1 Bft)
30/11/2011 13:35 11,9 C 88 % 1025,1 hPa 0,0 mm 2,9 km/h (1 Bft) SE 135 0 min 0 W/m 10,0 C 11,9 C 4,3 km/h (1 Bft)
30/11/2011 13:40 11,9 C 87 % 1025,0 hPa 0,0 mm 0,4 km/h (0 Bft) S-SE 157 0 min 0 W/m 9,8 C 11,9 C 0,4 km/h (0 Bft)
30/11/2011 13:45 12,0 C 87 % 1025,1 hPa 0,0 mm 2,2 km/h (1 Bft) S-SE 157 0 min 0 W/m 9,9 C 12,0 C 4,0 km/h (1 Bft)
30/11/2011 13:50 12,0 C 86 % 1025,1 hPa 0,0 mm 0,0 km/h (0 Bft) S-SE 157 0 min 0 W/m 9,7 C 12,0 C 0,0 km/h (0 Bft)
30/11/2011 13:55 12,1 C 86 % 1025,0 hPa 0,0 mm 0,0 km/h (0 Bft) S-SE 157 0 min 0 W/m 9,8 C 12,1 C 0,0 km/h (0 Bft)
30/11/2011 14:00 12,1 C 86 % 1025,0 hPa 0,0 mm 2,5 km/h (1 Bft) S-SO 202 0 min 0 W/m 9,8 C 12,1 C 4,3 km/h (1 Bft)
30/11/2011 14:05 12,2 C 86 % 1024,9 hPa 0,0 mm 0,0 km/h (0 Bft) S-SO 202 0 min 0 W/m 9,9 C 12,2 C 0,0 km/h (0 Bft)
30/11/2011 14:10 12,3 C 86 % 1024,8 hPa 0,0 mm 2,9 km/h (1 Bft) S 180 0 min 0 W/m 10,0 C 12,3 C 4,3 km/h (1 Bft)
30/11/2011 14:15 12,3 C 86 % 1024,8 hPa 0,0 mm 1,4 km/h (1 Bft) S-SO 202 0 min 0 W/m 10,0 C 12,3 C 4,0 km/h (1 Bft)
30/11/2011 14:20 12,3 C 86 % 1024,7 hPa 0,0 mm 1,1 km/h (1 Bft) S-SE 157 0 min 0 W/m 10,0 C 12,3 C 3,6 km/h (1 Bft)
30/11/2011 14:25 12,4 C 86 % 1024,7 hPa 0,0 mm 0,0 km/h (0 Bft) S-SE 157 0 min 0 W/m 10,1 C 12,4 C 0,0 km/h (0 Bft)
30/11/2011 14:30 12,4 C 86 % 1024,6 hPa 0,0 mm 0,0 km/h (0 Bft) S-SE 157 0 min 0 W/m 10,1 C 12,4 C 0,0 km/h (0 Bft)
30/11/2011 14:35 12,3 C 86 % 1024,6 hPa 0,0 mm 0,0 km/h (0 Bft) N 360 0 min 0 W/m 10,0 C 12,3 C 0,0 km/h (0 Bft)
30/11/2011 14:40 12,3 C 86 % 1024,6 hPa 0,0 mm 0,7 km/h (0 Bft) SE 135 0 min 0 W/m 10,0 C 12,3 C 0,7 km/h (0 Bft)
30/11/2011 14:45 12,3 C 86 % 1024,5 hPa 0,0 mm 1,8 km/h (1 Bft) S 180 0 min 0 W/m 10,0 C 12,3 C 4,0 km/h (1 Bft)
30/11/2011 14:50 12,3 C 86 % 1024,5 hPa 0,0 mm 4,0 km/h (1 Bft) SE 135 0 min 0 W/m 10,0 C 12,3 C 4,0 km/h (1 Bft)
30/11/2011 14:55 12,3 C 85 % 1024,5 hPa 0,0 mm 6,1 km/h (2 Bft) SE 135 0 min 0 W/m 9,9 C 12,3 C 8,6 km/h (2 Bft)
30/11/2011 15:00 12,3 C 85 % 1024,5 hPa 0,0 mm 2,9 km/h (1 Bft) SE 135 0 min 0 W/m 9,9 C 12,3 C 5,8 km/h (2 Bft)
30/11/2011 15:05 12,3 C 85 % 1024,3 hPa 0,0 mm 2,2 km/h (1 Bft) SE 135 0 min 0 W/m 9,9 C 12,3 C 3,2 km/h (1 Bft)
30/11/2011 15:10 12,2 C 85 % 1024,3 hPa 0,0 mm 3,2 km/h (1 Bft) E-SE 112 0 min 0 W/m 9,8 C 12,2 C 3,2 km/h (1 Bft)
30/11/2011 15:15 12,1 C 85 % 1024,2 hPa 0,0 mm 2,2 km/h (1 Bft) SE 135 0 min 0 W/m 9,7 C 12,1 C 3,6 km/h (1 Bft)
30/11/2011 15:20 12,1 C 85 % 1024,1 hPa 0,0 mm 5,8 km/h (2 Bft) E-SE 112 0 min 0 W/m 9,7 C 12,1 C 8,6 km/h (2 Bft)
30/11/2011 15:25 12,1 C 85 % 1024,1 hPa 0,0 mm 4,0 km/h (1 Bft) E-NE 67 0 min 0 W/m 9,7 C 12,1 C 10,4 km/h (2 Bft)
30/11/2011 15:30 12,0 C 85 % 1024,1 hPa 0,0 mm 0,4 km/h (0 Bft) SE 135 0 min 0 W/m 9,6 C 12,0 C 3,6 km/h (1 Bft)
30/11/2011 15:35 12,1 C 85 % 1024,0 hPa 0,0 mm 1,4 km/h (1 Bft) E-SE 112 0 min 0 W/m 9,7 C 12,1 C 3,6 km/h (1 Bft)
30/11/2011 15:40 12,1 C 85 % 1024,0 hPa 0,0 mm 4,0 km/h (1 Bft) SE 135 0 min 0 W/m 9,7 C 12,1 C 4,0 km/h (1 Bft)
30/11/2011 15:45 12,1 C 85 % 1024,0 hPa 0,0 mm 1,4 km/h (1 Bft) SE 135 0 min 0 W/m 9,7 C 12,1 C 3,6 km/h (1 Bft)
30/11/2011 15:50 11,9 C 86 % 1023,9 hPa 0,0 mm 2,5 km/h (1 Bft) SE 135 0 min 0 W/m 9,6 C 11,9 C 4,3 km/h (1 Bft)
30/11/2011 15:55 11,8 C 86 % 1023,9 hPa 0,0 mm 3,2 km/h (1 Bft) E 90 0 min 0 W/m 9,5 C 11,8 C 4,0 km/h (1 Bft)
30/11/2011 16:00 11,8 C 86 % 1023,9 hPa 0,0 mm 0,7 km/h (0 Bft) SE 135 0 min 0 W/m 9,5 C 11,8 C 3,6 km/h (1 Bft)
30/11/2011 16:05 11,8 C 86 % 1023,9 hPa 0,0 mm 0,4 km/h (0 Bft) SE 135 0 min 0 W/m 9,5 C 11,8 C 4,0 km/h (1 Bft)
30/11/2011 16:10 11,8 C 86 % 1023,9 hPa 0,0 mm 2,5 km/h (1 Bft) SE 135 0 min 0 W/m 9,5 C 11,8 C 4,0 km/h (1 Bft)
30/11/2011 16:15 11,8 C 86 % 1023,8 hPa 0,0 mm 0,0 km/h (0 Bft) S-SO 202 0 min 0 W/m 9,5 C 11,8 C 0,0 km/h (0 Bft)
30/11/2011 16:20 11,7 C 86 % 1023,9 hPa 0,0 mm 0,0 km/h (0 Bft) S-SE 157 0 min 0 W/m 9,4 C 11,7 C 0,0 km/h (0 Bft)
30/11/2011 16:25 11,6 C 86 % 1023,9 hPa 0,0 mm 2,5 km/h (1 Bft) SE 135 0 min 0 W/m 9,3 C 11,6 C 3,6 km/h (1 Bft)
30/11/2011 16:30 11,6 C 87 % 1023,8 hPa 0,0 mm 3,2 km/h (1 Bft) S-SE 157 0 min 0 W/m 9,5 C 11,6 C 4,0 km/h (1 Bft)
30/11/2011 16:35 11,6 C 87 % 1023,7 hPa 0,0 mm 0,0 km/h (0 Bft) S-SE 157 0 min 0 W/m 9,5 C 11,6 C 0,0 km/h (0 Bft)
30/11/2011 16:40 11,6 C 87 % 1023,7 hPa 0,0 mm 1,1 km/h (1 Bft) S-SE 157 0 min 0 W/m 9,5 C 11,6 C 3,6 km/h (1 Bft)
30/11/2011 16:45 11,6 C 87 % 1023,6 hPa 0,0 mm 0,7 km/h (0 Bft) S-SE 157 0 min 0 W/m 9,5 C 11,6 C 4,0 km/h (1 Bft)
30/11/2011 16:50 11,6 C 87 % 1023,7 hPa 0,0 mm 4,0 km/h (1 Bft) SE 135 0 min 0 W/m 9,5 C 11,6 C 7,2 km/h (2 Bft)
30/11/2011 16:55 11,5 C 87 % 1023,6 hPa 0,0 mm 1,4 km/h (1 Bft) E-SE 112 0 min 0 W/m 9,4 C 11,5 C 7,2 km/h (2 Bft)
30/11/2011 17:00 11,5 C 87 % 1023,4 hPa 0,0 mm 3,2 km/h (1 Bft) SE 135 0 min 0 W/m 9,4 C 11,5 C 3,2 km/h (1 Bft)
30/11/2011 17:05 11,4 C 87 % 1023,3 hPa 0,0 mm 1,1 km/h (1 Bft) SE 135 0 min 0 W/m 9,3 C 11,4 C 1,1 km/h (1 Bft)
30/11/2011 17:10 11,4 C 87 % 1023,5 hPa 0,0 mm 4,3 km/h (1 Bft) S 180 0 min 0 W/m 9,3 C 11,4 C 9,4 km/h (2 Bft)
30/11/2011 17:15 11,4 C 88 % 1023,6 hPa 0,0 mm 0,4 km/h (0 Bft) O-SO 247 0 min 0 W/m 9,5 C 11,4 C 0,4 km/h (0 Bft)
30/11/2011 17:20 11,3 C 87 % 1023,6 hPa 0,0 mm 1,4 km/h (1 Bft) S 180 0 min 0 W/m 9,2 C 11,3 C 3,2 km/h (1 Bft)
30/11/2011 17:25 11,3 C 88 % 1023,6 hPa 0,0 mm 1,4 km/h (1 Bft) S-SO 202 0 min 0 W/m 9,4 C 11,3 C 3,2 km/h (1 Bft)
30/11/2011 17:30 11,3 C 87 % 1023,5 hPa 0,0 mm 3,6 km/h (1 Bft) S-SO 202 0 min 0 W/m 9,2 C 11,3 C 9,0 km/h (2 Bft)
30/11/2011 17:35 11,2 C 87 % 1023,5 hPa 0,0 mm 1,1 km/h (1 Bft) S-SE 157 0 min 0 W/m 9,1 C 11,2 C 4,0 km/h (1 Bft)
30/11/2011 17:40 11,2 C 87 % 1023,4 hPa 0,0 mm 1,1 km/h (1 Bft) N 360 0 min 0 W/m 9,1 C 11,2 C 1,1 km/h (1 Bft)
30/11/2011 17:45 11,2 C 88 % 1023,4 hPa 0,0 mm 0,0 km/h (0 Bft) S-SE 157 0 min 0 W/m 9,3 C 11,2 C 0,0 km/h (0 Bft)
30/11/2011 17:50 11,2 C 88 % 1023,5 hPa 0,0 mm 0,0 km/h (0 Bft) S-SE 157 0 min 0 W/m 9,3 C 11,2 C 0,0 km/h (0 Bft)
30/11/2011 17:55 11,1 C 88 % 1023,5 hPa 0,0 mm 0,0 km/h (0 Bft) S-SE 157 0 min 0 W/m 9,2 C 11,1 C 0,0 km/h (0 Bft)
30/11/2011 18:00 11,1 C 88 % 1023,4 hPa 0,0 mm 0,0 km/h (0 Bft) S-SE 157 0 min 0 W/m 9,2 C 11,1 C 0,0 km/h (0 Bft)
30/11/2011 18:05 11,1 C 88 % 1023,4 hPa 0,0 mm 0,0 km/h (0 Bft) S-SE 157 0 min 0 W/m 9,2 C 11,1 C 0,0 km/h (0 Bft)
30/11/2011 18:10 11,1 C 88 % 1023,4 hPa 0,0 mm 0,4 km/h (0 Bft) S-SE 157 0 min 0 W/m 9,2 C 11,1 C 0,4 km/h (0 Bft)
30/11/2011 18:15 11,1 C 88 % 1023,3 hPa 0,0 mm 1,1 km/h (1 Bft) SE 135 0 min 0 W/m 9,2 C 11,1 C 3,6 km/h (1 Bft)
30/11/2011 18:20 11,0 C 88 % 1023,2 hPa 0,0 mm 0,4 km/h (0 Bft) E-SE 112 0 min 0 W/m 9,1 C 11,0 C 2,9 km/h (1 Bft)
30/11/2011 18:25 10,9 C 88 % 1023,1 hPa 0,0 mm 0,4 km/h (0 Bft) N 360 0 min 0 W/m 9,0 C 10,9 C 0,4 km/h (0 Bft)
30/11/2011 18:30 10,9 C 88 % 1023,1 hPa 0,0 mm 1,8 km/h (1 Bft) E-SE 112 0 min 0 W/m 9,0 C 10,9 C 4,0 km/h (1 Bft)
30/11/2011 18:35 10,9 C 88 % 1023,1 hPa 0,0 mm 2,2 km/h (1 Bft) SE 135 0 min 0 W/m 9,0 C 10,9 C 4,0 km/h (1 Bft)
30/11/2011 18:40 10,9 C 88 % 1023,0 hPa 0,0 mm 0,4 km/h (0 Bft) E-SE 112 0 min 0 W/m 9,0 C 10,9 C 0,4 km/h (0 Bft)
30/11/2011 18:45 10,8 C 88 % 1023,0 hPa 0,0 mm 0,0 km/h (0 Bft) E-SE 112 0 min 0 W/m 8,9 C 10,8 C 0,0 km/h (0 Bft)
30/11/2011 18:50 10,8 C 88 % 1023,0 hPa 0,0 mm 1,8 km/h (1 Bft) E-SE 112 0 min 0 W/m 8,9 C 10,8 C 3,2 km/h (1 Bft)
30/11/2011 18:55 10,8 C 88 % 1022,9 hPa 0,0 mm 2,9 km/h (1 Bft) E-SE 112 0 min 0 W/m 8,9 C 10,8 C 4,3 km/h (1 Bft)
30/11/2011 19:00 10,6 C 88 % 1022,8 hPa 0,0 mm 2,9 km/h (1 Bft) E-SE 112 0 min 0 W/m 8,7 C 10,6 C 4,3 km/h (1 Bft)
30/11/2011 19:05 10,5 C 89 % 1022,8 hPa 0,0 mm 0,7 km/h (0 Bft) E-SE 112 0 min 0 W/m 8,8 C 10,5 C 3,6 km/h (1 Bft)
30/11/2011 19:10 10,4 C 89 % 1022,8 hPa 0,0 mm 1,1 km/h (1 Bft) E 90 0 min 0 W/m 8,7 C 10,4 C 4,0 km/h (1 Bft)
30/11/2011 19:15 10,3 C 89 % 1022,8 hPa 0,0 mm 0,0 km/h (0 Bft) E-SE 112 0 min 0 W/m 8,6 C 10,3 C 0,0 km/h (0 Bft)
30/11/2011 19:20 10,3 C 89 % 1022,6 hPa 0,0 mm 1,4 km/h (1 Bft) E-SE 112 0 min 0 W/m 8,6 C 10,3 C 4,0 km/h (1 Bft)
30/11/2011 19:25 10,3 C 89 % 1022,5 hPa 0,0 mm 0,4 km/h (0 Bft) E 90 0 min 0 W/m 8,6 C 10,3 C 2,9 km/h (1 Bft)
30/11/2011 19:30 10,2 C 90 % 1022,4 hPa 0,0 mm 2,9 km/h (1 Bft) E 90 0 min 0 W/m 8,6 C 10,2 C 4,0 km/h (1 Bft)
30/11/2011 19:35 10,2 C 90 % 1022,4 hPa 0,0 mm 3,2 km/h (1 Bft) E-SE 112 0 min 0 W/m 8,6 C 10,2 C 6,5 km/h (2 Bft)
30/11/2011 19:40 10,2 C 90 % 1022,4 hPa 0,0 mm 2,5 km/h (1 Bft) E-SE 112 0 min 0 W/m 8,6 C 10,2 C 4,0 km/h (1 Bft)
30/11/2011 19:45 10,1 C 90 % 1022,3 hPa 0,0 mm 0,4 km/h (0 Bft) E 90 0 min 0 W/m 8,5 C 10,1 C 2,9 km/h (1 Bft)
30/11/2011 19:50 10,1 C 90 % 1022,3 hPa 0,0 mm 1,1 km/h (1 Bft) E 90 0 min 0 W/m 8,5 C 10,1 C 1,1 km/h (1 Bft)
30/11/2011 19:55 10,1 C 90 % 1022,2 hPa 0,0 mm 0,4 km/h (0 Bft) E 90 0 min 0 W/m 8,5 C 10,1 C 0,4 km/h (0 Bft)
30/11/2011 20:00 10,0 C 90 % 1022,2 hPa 0,0 mm 3,2 km/h (1 Bft) SE 135 0 min 0 W/m 8,4 C 10,0 C 4,3 km/h (1 Bft)
30/11/2011 20:05 9,9 C 90 % 1022,2 hPa 0,0 mm 0,0 km/h (0 Bft) SE 135 0 min 0 W/m 8,3 C 9,9 C 0,0 km/h (0 Bft)
30/11/2011 20:10 9,8 C 90 % 1022,1 hPa 0,0 mm 0,0 km/h (0 Bft) S-SE 157 0 min 0 W/m 8,2 C 9,8 C 0,0 km/h (0 Bft)
30/11/2011 20:15 9,7 C 90 % 1022,0 hPa 0,0 mm 0,0 km/h (0 Bft) SE 135 0 min 0 W/m 8,1 C 9,7 C 2,2 km/h (1 Bft)
30/11/2011 20:20 9,6 C 91 % 1022,0 hPa 0,0 mm 0,0 km/h (0 Bft) SE 135 0 min 0 W/m 8,2 C 9,6 C 0,0 km/h (0 Bft)
30/11/2011 20:25 9,5 C 90 % 1022,1 hPa 0,0 mm 0,0 km/h (0 Bft) SE 135 0 min 0 W/m 7,9 C 9,5 C 0,0 km/h (0 Bft)
30/11/2011 20:30 9,4 C 91 % 1022,0 hPa 0,0 mm 0,0 km/h (0 Bft) SE 135 0 min 0 W/m 8,0 C 9,4 C 3,2 km/h (1 Bft)
30/11/2011 20:35 9,3 C 91 % 1022,0 hPa 0,0 mm 0,4 km/h (0 Bft) E-SE 112 0 min 0 W/m 7,9 C 9,3 C 3,2 km/h (1 Bft)
30/11/2011 20:40 9,2 C 91 % 1022,0 hPa 0,0 mm 0,0 km/h (0 Bft) E-SE 112 0 min 0 W/m 7,8 C 9,2 C 0,0 km/h (0 Bft)
30/11/2011 20:45 9,1 C 91 % 1022,0 hPa 0,0 mm 0,0 km/h (0 Bft) E 90 0 min 0 W/m 7,7 C 9,1 C 0,0 km/h (0 Bft)
30/11/2011 20:50 9,1 C 91 % 1022,0 hPa 0,0 mm 0,4 km/h (0 Bft) E 90 0 min 0 W/m 7,7 C 9,1 C 3,6 km/h (1 Bft)
30/11/2011 20:55 9,1 C 91 % 1021,8 hPa 0,0 mm 1,4 km/h (1 Bft) E 90 0 min 0 W/m 7,7 C 9,1 C 4,0 km/h (1 Bft)
30/11/2011 21:00 9,1 C 91 % 1021,9 hPa 0,0 mm 0,0 km/h (0 Bft) E 90 0 min 0 W/m 7,7 C 9,1 C 1,4 km/h (1 Bft)
30/11/2011 21:05 9,1 C 91 % 1021,8 hPa 0,0 mm 0,4 km/h (0 Bft) SE 135 0 min 0 W/m 7,7 C 9,1 C 4,0 km/h (1 Bft)
30/11/2011 21:10 9,1 C 91 % 1021,8 hPa 0,0 mm 1,1 km/h (1 Bft) E-SE 112 0 min 0 W/m 7,7 C 9,1 C 4,0 km/h (1 Bft)
30/11/2011 21:15 9,1 C 91 % 1021,9 hPa 0,0 mm 0,0 km/h (0 Bft) SE 135 0 min 0 W/m 7,7 C 9,1 C 0,0 km/h (0 Bft)
30/11/2011 21:20 9,1 C 91 % 1021,9 hPa 0,0 mm 0,0 km/h (0 Bft) SE 135 0 min 0 W/m 7,7 C 9,1 C 0,0 km/h (0 Bft)
30/11/2011 21:25 9,1 C 91 % 1021,9 hPa 0,0 mm 0,0 km/h (0 Bft) SE 135 0 min 0 W/m 7,7 C 9,1 C 0,0 km/h (0 Bft)
30/11/2011 21:30 9,1 C 91 % 1021,8 hPa 0,0 mm 0,7 km/h (0 Bft) E 90 0 min 0 W/m 7,7 C 9,1 C 4,0 km/h (1 Bft)
30/11/2011 21:35 9,1 C 92 % 1021,7 hPa 0,0 mm 0,7 km/h (0 Bft) E-SE 112 0 min 0 W/m 7,9 C 9,1 C 3,6 km/h (1 Bft)
30/11/2011 21:40 9,1 C 92 % 1021,8 hPa 0,0 mm 0,0 km/h (0 Bft) E 90 0 min 0 W/m 7,9 C 9,1 C 0,0 km/h (0 Bft)
30/11/2011 21:45 9,1 C 92 % 1021,6 hPa 0,0 mm 0,0 km/h (0 Bft) E 90 0 min 0 W/m 7,9 C 9,1 C 0,0 km/h (0 Bft)
30/11/2011 21:50 9,0 C 92 % 1021,7 hPa 0,0 mm 0,4 km/h (0 Bft) E 90 0 min 0 W/m 7,8 C 9,0 C 0,4 km/h (0 Bft)
30/11/2011 21:55 8,9 C 92 % 1021,6 hPa 0,0 mm 0,0 km/h (0 Bft) E 90 0 min 0 W/m 7,7 C 8,9 C 0,0 km/h (0 Bft)
30/11/2011 22:00 8,9 C 92 % 1021,5 hPa 0,0 mm 0,0 km/h (0 Bft) E 90 0 min 0 W/m 7,7 C 8,9 C 0,0 km/h (0 Bft)
30/11/2011 22:05 8,8 C 92 % 1021,6 hPa 0,0 mm 0,0 km/h (0 Bft) E 90 0 min 0 W/m 7,6 C 8,8 C 0,0 km/h (0 Bft)
30/11/2011 22:10 8,6 C 92 % 1021,6 hPa 0,0 mm 0,0 km/h (0 Bft) E 90 0 min 0 W/m 7,4 C 8,6 C 0,0 km/h (0 Bft)
30/11/2011 22:15 8,6 C 92 % 1021,5 hPa 0,0 mm 0,0 km/h (0 Bft) E 90 0 min 0 W/m 7,4 C 8,6 C 0,0 km/h (0 Bft)
30/11/2011 22:20 8,4 C 92 % 1021,5 hPa 0,0 mm 0,0 km/h (0 Bft) E-SE 112 0 min 0 W/m 7,2 C 8,4 C 3,6 km/h (1 Bft)
30/11/2011 22:25 8,4 C 92 % 1021,4 hPa 0,0 mm 0,4 km/h (0 Bft) S-SE 157 0 min 0 W/m 7,2 C 8,4 C 3,6 km/h (1 Bft)
30/11/2011 22:30 8,4 C 93 % 1021,3 hPa 0,0 mm 0,0 km/h (0 Bft) S-SE 157 0 min 0 W/m 7,3 C 8,4 C 0,0 km/h (0 Bft)
30/11/2011 22:35 8,4 C 92 % 1021,2 hPa 0,0 mm 1,8 km/h (1 Bft) S-SE 157 0 min 0 W/m 7,2 C 8,4 C 1,8 km/h (1 Bft)
30/11/2011 22:40 8,4 C 93 % 1021,2 hPa 0,0 mm 0,4 km/h (0 Bft) SE 135 0 min 0 W/m 7,3 C 8,4 C 3,6 km/h (1 Bft)
30/11/2011 22:45 8,4 C 93 % 1021,3 hPa 0,0 mm 1,1 km/h (1 Bft) SE 135 0 min 0 W/m 7,3 C 8,4 C 3,6 km/h (1 Bft)
30/11/2011 22:50 8,5 C 93 % 1021,3 hPa 0,0 mm 0,4 km/h (0 Bft) S-SE 157 0 min 0 W/m 7,4 C 8,5 C 3,2 km/h (1 Bft)
30/11/2011 22:55 8,5 C 93 % 1021,4 hPa 0,0 mm 0,0 km/h (0 Bft) S 180 0 min 0 W/m 7,4 C 8,5 C 0,0 km/h (0 Bft)
30/11/2011 23:00 8,4 C 93 % 1021,3 hPa 0,0 mm 0,0 km/h (0 Bft) S 180 0 min 0 W/m 7,3 C 8,4 C 0,0 km/h (0 Bft)
30/11/2011 23:05 8,4 C 93 % 1021,3 hPa 0,0 mm 0,0 km/h (0 Bft) S-SE 157 0 min 0 W/m 7,3 C 8,4 C 0,0 km/h (0 Bft)
30/11/2011 23:10 8,3 C 93 % 1021,2 hPa 0,0 mm 0,0 km/h (0 Bft) S-SE 157 0 min 0 W/m 7,2 C 8,3 C 0,0 km/h (0 Bft)
30/11/2011 23:15 8,4 C 93 % 1021,0 hPa 0,0 mm 2,9 km/h (1 Bft) SE 135 0 min 0 W/m 7,3 C 8,4 C 4,3 km/h (1 Bft)
30/11/2011 23:20 8,4 C 93 % 1021,0 hPa 0,0 mm 0,0 km/h (0 Bft) S-SE 157 0 min 0 W/m 7,3 C 8,4 C 0,0 km/h (0 Bft)
30/11/2011 23:25 8,4 C 93 % 1021,0 hPa 0,0 mm 0,7 km/h (0 Bft) S 180 0 min 0 W/m 7,3 C 8,4 C 0,7 km/h (0 Bft)
30/11/2011 23:30 8,4 C 93 % 1021,0 hPa 0,0 mm 0,0 km/h (0 Bft) S 180 0 min 0 W/m 7,3 C 8,4 C 0,0 km/h (0 Bft)
30/11/2011 23:35 8,3 C 93 % 1021,1 hPa 0,0 mm 0,0 km/h (0 Bft) S-SO 202 0 min 0 W/m 7,2 C 8,3 C 3,2 km/h (1 Bft)
30/11/2011 23:40 8,3 C 93 % 1021,0 hPa 0,0 mm 2,2 km/h (1 Bft) S-SO 202 0 min 0 W/m 7,2 C 8,3 C 8,6 km/h (2 Bft)
30/11/2011 23:45 8,3 C 93 % 1021,0 hPa 0,0 mm 3,2 km/h (1 Bft) S-SO 202 0 min 0 W/m 7,2 C 8,3 C 4,3 km/h (1 Bft)
30/11/2011 23:50 8,4 C 93 % 1020,9 hPa 0,0 mm 5,0 km/h (1 Bft) S 180 0 min 0 W/m 7,3 C 7,9 C 8,3 km/h (2 Bft)
30/11/2011 23:55 8,6 C 93 % 1020,8 hPa 0,0 mm 2,5 km/h (1 Bft) S 180 0 min 0 W/m 7,5 C 8,6 C 8,6 km/h (2 Bft)
_ Min-Heure 23:45 15:45 23:55 - 23:35 - - - - 22:35 23:50 23:30
Minimum _ 8,3 C 85 % 1020,8 hPa - 0,0 km/h (0 Bft) - - - - 7,2 C 7,9 C 0,0 km/h (0 Bft)
_ Max-Heure 14:30 11:40 11:20 00:10 14:55 - - 23:55 23:55 13:10 14:30 15:25
Maximum _ 12,4 C 96 % 1026,4 hPa 0,1 mm 6,1 km/h
SE (2 Bft)
- - 0 min 0 W/m 10,2 C 12,4 C 10,4 km/h
E-NE (2 Bft)
Moyenne _ 10,0 C 92 % 1024,1 hPa #0,1 mm 1,0 km/h (0 Bft) SO - #0 min. 0 W/m 8,7 C 10,0 C 2,2 km/h (1 Bft)
Saint Bonnet de Bellac- Haute Vienne - France